Location: Alma
(38.7220°N, 88.9090°W)
Time: 08:32:37
(UTC-06:00)

Vanguard 2 Rocket - Pass Details

Date: 22 November 2019
Orbit: 554 x 3326 km, 32.9° (Epoch: 04 December)

Event Time Altitude Azimuth Distance (km) Brightness Sun altitude
Rises 23:59:34 0° 236° (SW) 2,795 - -71.0°
Reaches altitude 10° 00:02:04 10° 223° (SW) 1,827 - -70.8°
Maximum altitude 00:05:25 27° 164° (SSE) 1,101 - -70.7°
Drops below altitude 10° 00:09:05 10° 105° (ESE) 2,014 - -70.4°
Sets 00:11:59 0° 93° (E) 3,154 - -70.2°
